Content
SEND FEEDBACK

Daily
Averages
Monthly
Summary
United States of America

NEVADA CITY, CALIFORNIA


Home > North America > United States > California
Elevation: 2934 feet     Latitude: 39 18N     Longitude: 121 00W

WEATHER
 
SELECT A DAY
Number of Records: 60,065;   Date Range: 9/21/11 - 7/27/14
 
SHARE

PRINT THIS DATA

[ ← Previous Day ]
WEATHER ALMANAC - MARCH 12, 2013
[ Next Day → ]
[ °C ]   °F
Weather ElementAverageHighLow
Temperature57.4 °F68 °F (2:55 pm)48.2 °F (1:15 am)
Dewpoint41.9 °F46.4 °F (7:15 pm)35.6 °F (7:35 am)
Humidity57.4 %72 % (7:55 pm)37 % (3:15 pm)
Barometer30.17 in30.20 in (9:55 am)30.14 in (2:55 pm)
Wind Speed1.2 mph8.1 mph (3:55 pm)
Weather ElementAverage
Visibility10 mi
Wind DirectionENE (63.2 °)

Weather ElementTotal
Precipitation---
Heating Degree Days6.9 (Base 65)
Growing Degree Days8.1 (Base 50)
Averaged from 69 records on March 12, 2013
WEATHER CONDITIONS BREAKOUT
WIND DIRECTION BREAKOUT
WEATHER BY HOUR - MARCH 12, 2013
[ °C ]   °F
Local TimeTemperatureDewpointHumidityBarometerVisibilityWind DirectionWind SpeedGust SpeedPrecipitationEventsConditions
12:35 AM50.0 °F41.0 °F71 %30.16 in10.0 miCalmClear
12:55 AM50.0 °F39.2 °F66 %30.16 in10.0 miCalmClear
1:15 AM48.2 °F39.2 °F71 %30.16 in10.0 miCalmClear
1:35 AM50.0 °F41.0 °F71 %30.16 in10.0 miCalmClear
2:15 AM50.0 °F41.0 °F71 %30.16 in10.0 miCalmClear
2:35 AM50.0 °F41.0 °F71 %30.17 in10.0 miCalmClear
2:55 AM50.0 °F41.0 °F71 %30.17 in10.0 miCalmClear
3:15 AM50.0 °F41.0 °F71 %30.16 in10.0 miCalmClear
3:35 AM50.0 °F41.0 °F71 %30.16 in10.0 miCalmClear
3:55 AM50.0 °F41.0 °F71 %30.15 in10.0 miCalmClear
4:15 AM50.0 °F39.2 °F66 %30.15 in10.0 miCalmClear
4:35 AM50.0 °F39.2 °F66 %30.15 in10.0 miCalmClear
4:55 AM50.0 °F39.2 °F66 %30.15 in10.0 miCalmClear
5:15 AM50.0 °F39.2 °F66 %30.15 in10.0 miCalmClear
5:35 AM50.0 °F39.2 °F66 %30.15 in10.0 miCalmClear
5:55 AM48.2 °F39.2 °F71 %30.16 in10.0 miCalmClear
6:15 AM50.0 °F37.4 °F62 %30.16 in10.0 miCalmClear
6:35 AM50.0 °F37.4 °F62 %30.16 in10.0 miCalmClear
6:55 AM48.2 °F37.4 °F66 %30.16 in10.0 miCalmClear
7:15 AM48.2 °F37.4 °F66 %30.17 in10.0 miCalmClear
7:35 AM48.2 °F35.6 °F62 %30.16 in10.0 miCalmClear
7:55 AM50.0 °F37.4 °F62 %30.16 in10.0 miCalmClear
8:15 AM51.8 °F37.4 °F58 %30.17 in10.0 miCalmClear
8:35 AM53.6 °F37.4 °F54 %30.17 in10.0 miCalmClear
8:55 AM55.4 °F39.2 °F54 %30.18 in10.0 miCalmClear
9:15 AM55.4 °F37.4 °F51 %30.19 in10.0 miCalmClear
9:35 AM57.2 °F35.6 °F44 %30.19 in10.0 miCalmClear
9:55 AM57.2 °F39.2 °F51 %30.20 in10.0 miCalmClear
10:15 AM57.2 °F37.4 °F48 %30.19 in10.0 miCalmClear
10:35 AM57.2 °F37.4 °F48 %30.19 in10.0 miCalmClear
10:55 AM60.8 °F41.0 °F48 %30.19 in10.0 miCalmClear
11:15 AM60.8 °F41.0 °F48 %30.19 in10.0 miCalmClear
11:35 AM62.6 °F41.0 °F45 %30.19 in10.0 miCalmClear
11:55 AM62.6 °F41.0 °F45 %30.19 in10.0 miCalmClear
12:15 PM64.4 °F41.0 °F42 %30.19 in10.0 miWest (270°)6.9 mphClear
12:55 PM64.4 °F42.8 °F45 %30.18 in10.0 miWest (270°)3.5 mphClear
1:15 PM64.4 °F41.0 °F42 %30.18 in10.0 miCalmClear
1:35 PM66.2 °F41.0 °F40 %30.17 in10.0 miWNW (300°)4.6 mphClear
1:55 PM66.2 °F42.8 °F43 %30.17 in10.0 miWNW (290°)4.6 mphClear
2:15 PM66.2 °F41.0 °F40 %30.16 in10.0 miCalmClear
2:35 PM66.2 °F42.8 °F43 %30.15 in10.0 miWest (280°)4.6 mphClear
2:55 PM68.0 °F42.8 °F40 %30.14 in10.0 miWSW (240°)5.8 mphClear
3:15 PM68.0 °F41.0 °F37 %30.14 in10.0 miWNW (300°)3.5 mphClear
3:35 PM68.0 °F41.0 °F37 %30.14 in10.0 miWNW (300°)3.5 mphClear
3:55 PM68.0 °F44.6 °F43 %30.14 in10.0 miWest (280°)8.1 mphClear
4:15 PM66.2 °F44.6 °F46 %30.14 in10.0 miWNW (290°)6.9 mphClear
4:35 PM66.2 °F44.6 °F46 %30.14 in10.0 miWNW (290°)5.8 mphClear
4:55 PM66.2 °F44.6 °F46 %30.15 in10.0 miWest (280°)4.6 mphClear
5:15 PM64.4 °F44.6 °F49 %30.14 in10.0 miWNW (290°)4.6 mphClear
5:35 PM64.4 °F44.6 °F49 %30.14 in10.0 miCalmClear
5:55 PM64.4 °F44.6 °F49 %30.14 in10.0 miCalmClear
6:15 PM62.6 °F44.6 °F52 %30.15 in10.0 miCalmClear
6:35 PM62.6 °F44.6 °F52 %30.15 in10.0 miWest (280°)3.5 mphClear
6:55 PM62.6 °F44.6 °F52 %30.15 in10.0 miCalmClear
7:15 PM59.0 °F46.4 °F63 %30.16 in10.0 miCalmClear
7:35 PM57.2 °F46.4 °F67 %30.17 in10.0 miCalmClear
7:55 PM55.4 °F46.4 °F72 %30.17 in10.0 miCalmClear
8:15 PM57.2 °F46.4 °F67 %30.17 in10.0 miCalmClear
8:35 PM57.2 °F46.4 °F67 %30.17 in10.0 miCalmClear
8:55 PM57.2 °F46.4 °F67 %30.18 in10.0 miEast (100°)3.5 mphClear
9:15 PM57.2 °F46.4 °F67 %30.19 in10.0 miCalmClear
9:35 PM57.2 °F46.4 °F67 %30.19 in10.0 miCalmClear
9:55 PM57.2 °F46.4 °F67 %30.19 in10.0 miCalmClear
10:15 PM57.2 °F46.4 °F67 %30.19 in10.0 miCalmClear
10:35 PM59.0 °F46.4 °F63 %30.20 in10.0 miEast (100°)4.6 mphClear
10:55 PM59.0 °F46.4 °F63 %30.20 in10.0 miCalmClear
11:15 PM59.0 °F46.4 °F63 %30.20 in10.0 miCalmClear
11:35 PM59.0 °F46.4 °F63 %30.20 in10.0 miEast (100°)3.5 mphClear
11:55 PM57.2 °F46.4 °F67 %30.20 in10.0 miEast (100°)3.5 mphClear
Hourly data recorded from KGOO, located miles away from Nevada City, California







STORIES FROM OUR PARTNERS